Tracking 19176 objects as of 26-May-2018
HD Live streaming from Space Station
objects crossing your sky now

METEOR 2-13

Track METEOR 2-13 now!
10-day predictions
METEOR 2-13 is classified as:


NORAD ID: 16408
Int'l Code: 1985-119A
Perigee: 939.7 km
Apogee: 964.6 km
Inclination: 82.5 °
Period: 103.9 minutes
Semi major axis: 7323 km
RCS: 4.8137 m2 (large)
Launch date: December 26, 1985
Source: Commonwealth of Independent States (former USSR) (CIS)
Launch site: PLESETSK MISSILE AND SPACE COMPLEX (PKMTR)
aabbcc
Your satellite tracking list
Your tracking list is empty




NASA's NSSDC Master Catalog

Two Line Element Set (TLE):
1 16408U 85119A   18145.88695735 -.00000031  00000-0 -40371-4 0  9998
2 16408  82.5373  80.9636 0017018 117.8669 242.4218 13.85346461638591
Source of the keplerian elements: AFSPC